Вернуться в каталог

SIRIO

АктивенСвязьGEO
NORAD 10294·PAYLOAD·🇮🇹 Italy

Запущен Aug 25, 1977 с Cape Canaveral Space Force Station

Loading…

TLE

СвежийSource: Space-Track

Эпоха: Sep 14, 2026, 14:09 UTC

1 10294U 77080A   26257.58992108 -.00000099  00000-0  00000-0 0  9991
2 10294   7.0281 298.5254 0005966 170.0219 172.0770  1.00270372118812

Отслеживайте SIRIO в реальном времени с AllMySat

Download on the App Store